Location: Alto Pass Reservoir
(37.5801°N, 89.3084°W)
Time: 23:29:19
(UTC+00:00)

Cosmos 2298 Rocket - Pass Details

Date: 08 July 2022
Orbit: 775 x 784 km, 74.0° (Epoch: 18 August)

Event Time Altitude Azimuth Distance (km) Brightness Sun altitude
Rises 06:47:35 0° 4° (N) 3,279 8.5 -29.0°
Reaches altitude 10° 06:52:49 10° 47° (NE) 2,344 7.2 -28.8°
Maximum altitude 06:53:26 10° 54° (NE) 2,331 7.1 -28.8°
Drops below altitude 10° 06:54:02 10° 61° (ENE) 2,343 7.0 -28.7°
Sets 06:59:13 0° 104° (ESE) 3,263 7.3 -28.5°
